Jackson, MN

3:29 AM CST on November 19, 2017 (GMT -0600)
Jackson Municipal

Weather History for KMJQ - June, 2014

Change the Weather History Date:

Tuesday, June 17, 2014

  Actual Average Record
Temperature  
Mean Temperature 68 °F -  
Max Temperature 77 °F 76 °F 87 °F (1997)
Min Temperature 59 °F 55 °F 42 °F (1999)
Cooling Degree Days 3    
Growing Degree Days 18 (Base 50)    
Moisture  
Dew Point 63 °F    
Average Humidity 81    
Maximum Humidity 94    
Minimum Humidity 69    
Precipitation  
Precipitation 0.06 in - - ()
Sea Level Pressure  
Sea Level Pressure 29.79 in    
Wind  
Wind Speed 13 mph (ESE)    
Max Wind Speed 28 mph    
Max Gust Speed 37 mph    
Visibility 10 miles    
Events Rain , Thunderstorm    
Averages and records for this station are not official NWS values.
T = Trace of Precipitation, MM = Missing Value Source: NWS Daily Summary

Daily Weather History Graph

Daily Weather History Graph

Search for Another Location

Airport or City:

Trip Planner

Search our weather history database for the weather conditions in past years. The results will help you decide how hot, cold, wet, or windy it might be!

Date:

Astronomy

Jun. 17, 2014 Rise Set
Actual Time 5:37 AM CDT 9:04 PM CDT
Civil Twilight 5:01 AM CDT 9:40 PM CDT
Nautical Twilight 4:14 AM CDT 10:27 PM CDT
Astronomical Twilight 3:15 AM CDT 11:26 PM CDT
Moon No Moon Rise 11:02 AM CDT (6/17)
Length of Visible Light 16h 38m
Length of Day
15h 26m
Waning Gibbous, 73% of the Moon is Illuminated
Jun 17
Waning Gibbous
Jun 19
Last Quarter
Jun 27
New
Jul 5
First Quarter
Jul 12
Full

Hourly Weather History & Observations

Time (CDT) Temp. Dew Point Humidity Pressure Visibility Wind Dir Wind Speed Gust Speed Precip Events Conditions
12:12 AM 60.8 °F 59.0 °F 94% 29.80 in 10.0 mi South 17.3 mph - 0.03 in Rain Rain
12:32 AM 60.8 °F 59.0 °F 94% 29.70 in 10.0 mi SE 21.9 mph - 0.06 in Rain , Thunderstorm Light Thunderstorms and Rain
12:52 AM 62.6 °F 59.0 °F 88% 29.72 in 10.0 mi SSE 21.9 mph 34.5 mph 0.06 in   Mostly Cloudy
1:12 AM 62.6 °F 59.0 °F 88% 29.71 in 10.0 mi SSE 21.9 mph 36.8 mph N/A Thunderstorm Mostly Cloudy
1:32 AM 62.6 °F 59.0 °F 88% 29.68 in 10.0 mi SSE 20.7 mph 27.6 mph N/A   Overcast
1:52 AM 62.6 °F 59.0 °F 88% 29.68 in 10.0 mi SSE 23.0 mph 35.7 mph N/A   Scattered Clouds
2:11 AM 62.6 °F 59.0 °F 88% 29.63 in 10.0 mi ESE 27.6 mph 34.5 mph N/A   Scattered Clouds
2:32 AM 62.6 °F 59.0 °F 88% 29.66 in 10.0 mi ESE 18.4 mph 27.6 mph N/A   Scattered Clouds
2:51 AM 62.6 °F 59.0 °F 88% 29.69 in 10.0 mi South 9.2 mph 24.2 mph N/A   Clear
3:12 AM 62.6 °F 59.0 °F 88% 29.74 in 10.0 mi WNW 5.8 mph 24.2 mph N/A   Scattered Clouds
3:32 AM 62.6 °F 59.0 °F 88% 29.78 in 10.0 mi West 9.2 mph - N/A   Scattered Clouds
3:52 AM 62.6 °F 59.0 °F 88% 29.78 in 10.0 mi WSW 9.2 mph - N/A   Scattered Clouds
4:12 AM 62.6 °F 57.2 °F 82% 29.79 in 10.0 mi West 6.9 mph - N/A   Clear
4:32 AM 62.6 °F 57.2 °F 82% 29.80 in 10.0 mi SW 11.5 mph - N/A   Clear
4:52 AM 62.6 °F 57.2 °F 82% 29.78 in 10.0 mi ESE 4.6 mph - N/A   Clear
5:12 AM 60.8 °F 57.2 °F 88% 29.79 in 10.0 mi SW 6.9 mph - N/A   Clear
5:32 AM 60.8 °F 55.4 °F 82% 29.79 in 10.0 mi Calm Calm - N/A   Clear
5:51 AM 59.0 °F 55.4 °F 88% 29.79 in 10.0 mi Calm Calm - N/A   Clear
6:12 AM 59.0 °F 55.4 °F 88% 29.80 in 10.0 mi Calm Calm - N/A   Clear
6:32 AM 59.0 °F 55.4 °F 88% 29.80 in 10.0 mi SSE 4.6 mph - N/A   Clear
6:51 AM 60.8 °F 57.2 °F 88% 29.81 in 10.0 mi SE 3.5 mph - N/A   Clear
7:12 AM 60.8 °F 57.2 °F 88% 29.81 in 10.0 mi East 3.5 mph - N/A   Clear
7:51 AM 64.4 °F 59.0 °F 83% 29.82 in 10.0 mi ESE 8.1 mph - N/A   Scattered Clouds
8:12 AM 64.4 °F 59.0 °F 83% 29.83 in 10.0 mi SE 8.1 mph - N/A   Mostly Cloudy
8:32 AM 64.4 °F 59.0 °F 83% 29.83 in 10.0 mi ESE 10.4 mph - N/A   Scattered Clouds
8:51 AM 66.2 °F 59.0 °F 78% 29.83 in 10.0 mi SE 9.2 mph - N/A   Scattered Clouds
9:12 AM 66.2 °F 59.0 °F 78% 29.83 in 10.0 mi SE 9.2 mph - N/A   Mostly Cloudy
9:32 AM 68.0 °F 60.8 °F 78% 29.83 in 10.0 mi SE 11.5 mph - N/A   Mostly Cloudy
9:51 AM 68.0 °F 60.8 °F 78% 29.81 in 10.0 mi SE 11.5 mph - N/A   Scattered Clouds
10:12 AM 68.0 °F 60.8 °F 78% 29.81 in 10.0 mi SE 12.7 mph 17.3 mph N/A   Clear
10:32 AM 69.8 °F 60.8 °F 73% 29.81 in 10.0 mi SE 12.7 mph 17.3 mph N/A   Scattered Clouds
10:52 AM 71.6 °F 60.8 °F 69% 29.81 in 10.0 mi SE 15.0 mph 18.4 mph N/A   Mostly Cloudy
11:12 AM 69.8 °F 60.8 °F 73% 29.81 in 10.0 mi SE 12.7 mph - N/A   Overcast
11:32 AM 71.6 °F 62.6 °F 73% 29.82 in 10.0 mi SE 13.8 mph 17.3 mph N/A   Overcast
11:52 AM 71.6 °F 62.6 °F 73% 29.82 in 10.0 mi SE 12.7 mph - N/A   Overcast
12:12 PM 71.6 °F 62.6 °F 73% 29.82 in 10.0 mi SE 12.7 mph 17.3 mph N/A   Overcast
12:32 PM 71.6 °F 62.6 °F 73% 29.83 in 10.0 mi ESE 12.7 mph - N/A   Overcast
12:52 PM 73.4 °F 62.6 °F 69% 29.82 in 10.0 mi ESE 12.7 mph - N/A   Mostly Cloudy
1:12 PM 73.4 °F 64.4 °F 73% 29.82 in 10.0 mi ESE 11.5 mph - N/A   Overcast
1:32 PM 73.4 °F 64.4 °F 73% 29.82 in 10.0 mi ESE 11.5 mph - N/A   Overcast
1:52 PM 73.4 °F 64.4 °F 73% 29.82 in 10.0 mi ESE 12.7 mph - N/A   Overcast
2:12 PM 73.4 °F 64.4 °F 73% 29.82 in 10.0 mi ESE 10.4 mph - N/A   Overcast
2:32 PM 75.2 °F 64.4 °F 69% 29.81 in 10.0 mi East 10.4 mph - N/A   Overcast
2:52 PM 73.4 °F 64.4 °F 73% 29.81 in 10.0 mi East 11.5 mph - N/A   Overcast
3:12 PM 75.2 °F 66.2 °F 73% 29.81 in 10.0 mi East 12.7 mph - N/A   Overcast
3:32 PM 75.2 °F 68.0 °F 78% 29.81 in 10.0 mi East 10.4 mph - N/A   Overcast
3:52 PM 75.2 °F 66.2 °F 73% 29.81 in 10.0 mi East 9.2 mph - N/A   Overcast
4:12 PM 75.2 °F 68.0 °F 78% 29.80 in 10.0 mi East 11.5 mph - N/A   Overcast
4:32 PM 75.2 °F 68.0 °F 78% 29.81 in 10.0 mi East 12.7 mph - N/A   Overcast
4:52 PM 75.2 °F 68.0 °F 78% 29.80 in 10.0 mi East 11.5 mph - N/A   Overcast
5:12 PM 75.2 °F 68.0 °F 78% 29.80 in 10.0 mi ENE 13.8 mph 18.4 mph N/A   Overcast
5:32 PM 77.0 °F 68.0 °F 74% 29.80 in 10.0 mi East 13.8 mph - N/A   Overcast
5:52 PM 77.0 °F 68.0 °F 74% 29.80 in 10.0 mi ENE 12.7 mph - N/A   Overcast
6:12 PM 77.0 °F 68.0 °F 74% 29.80 in 10.0 mi ENE 9.2 mph - N/A   Overcast
6:32 PM 77.0 °F 68.0 °F 74% 29.80 in 10.0 mi ENE 9.2 mph - N/A   Overcast
6:52 PM 77.0 °F 68.0 °F 74% 29.80 in 10.0 mi East 12.7 mph - N/A   Overcast
7:12 PM 77.0 °F 68.0 °F 74% 29.80 in 10.0 mi East 10.4 mph - N/A   Mostly Cloudy
7:32 PM 77.0 °F 69.8 °F 78% 29.80 in 10.0 mi East 9.2 mph - N/A   Scattered Clouds
7:52 PM 77.0 °F 69.8 °F 78% 29.80 in 10.0 mi East 10.4 mph - N/A   Scattered Clouds
8:12 PM 77.0 °F 69.8 °F 78% 29.80 in 10.0 mi East 9.2 mph - N/A   Mostly Cloudy
8:32 PM 75.2 °F 69.8 °F 83% 29.81 in 10.0 mi East 8.1 mph - N/A   Overcast
8:52 PM 75.2 °F 69.8 °F 83% 29.80 in 10.0 mi East 9.2 mph - N/A   Overcast
9:12 PM 73.4 °F 69.8 °F 88% 29.82 in 10.0 mi East 8.1 mph - N/A   Mostly Cloudy
9:32 PM 75.2 °F 69.8 °F 83% 29.82 in 10.0 mi East 8.1 mph - N/A   Mostly Cloudy
9:51 PM 73.4 °F 69.8 °F 88% 29.82 in 10.0 mi ENE 8.1 mph - N/A   Mostly Cloudy
10:12 PM 73.4 °F 69.8 °F 88% 29.81 in 10.0 mi East 10.4 mph - N/A   Mostly Cloudy
10:32 PM 73.4 °F 69.8 °F 88% 29.80 in 10.0 mi East 11.5 mph - N/A Thunderstorm Clear
10:51 PM 73.4 °F 69.8 °F 88% 29.79 in 10.0 mi ESE 10.4 mph - N/A Thunderstorm Clear
11:12 PM 73.4 °F 69.8 °F 88% 29.78 in 10.0 mi East 10.4 mph - N/A Rain , Thunderstorm Light Thunderstorms and Rain
11:32 PM 73.4 °F 69.8 °F 88% 29.79 in 7.0 mi ESE 10.4 mph - N/A Rain , Thunderstorm Rain
11:51 PM 73.4 °F 69.8 °F 88% 29.76 in 7.0 mi East 12.7 mph - N/A Thunderstorm Thunderstorm